Regional Weather Roundup
Issued by NWS

Home | Current Version | Previous Version | Graphics & Text | Print | Product List | Glossary On
Versions: 1 2 3 4 5 6 7 8 9 10 11 12 13 14 15 16 17 18 19 20 21 22 23 24 25 26 27 28 29 30 31 32 33 34 35 36 37 38 39 40 41 42 43 44 45 46 47 48 49 50
000
ASUS45 KABQ 012201
RWRNM
NEW MEXICO REGIONAL WEATHER ROUNDUP
NATIONAL WEATHER SERVICE ALBUQUERQUE NM
400 PM MDT SAT AUG 01 2015

NOTE: "FAIR" MEANS FEW OR NO CLOUDS BELOW 12,000 FEET AGL WITH NO
       SIGNIFICANT WEATHER OR OBSTRUCTIONS TO VISION.

      THIS PRODUCT IS RELEASED AS TWO VERSIONS.  ONE VERSION NEAR
      THE TOP OF THE HOUR CONTAINING PRELIMINARY DATA FROM ALBUQUERQUE
      AND OTHER STATIONS.  A FINAL VERSION WITH ADDITIONAL DATA IS
      ISSUED ABOUT 10 MINUTES AFTER THE HOUR.

NMZ501-503-504-510>518-012300-
NORTHWEST PLATEAU/NORTHCENTRAL MOUNTAINS

CITY           SKY/WX    TMP DP  RH WIND       PRES   REMARKS
FARMINGTON     MOSUNNY   80  53  39 CALM      30.17F
SANTA FE       PTSUNNY   75  55  49 N12       30.24F
TAOS           CLOUDY    73  48  40 N9        30.30F
ANGEL FIRE     FAIR      63  53  69 S15       30.41S

$$
NMZ402-403-502-505>509-012300-
WESTCENTRAL MOUNTAINS/SOUTHWEST MOUNTAINS

CITY           SKY/WX    TMP DP  RH WIND       PRES   REMARKS
GALLUP         CLOUDY    80  54  40 NW10      30.23F
GRANTS         PTSUNNY   75  58  56 N8G16     30.24F
SILVER CITY      N/A     88  48  25 S9G16     30.17F

$$
NMZ407-409-411-412-012300-
SOUTHERN DESERTS

CITY           SKY/WX    TMP DP  RH WIND       PRES   REMARKS
DEMING         MOSUNNY   91  49  23 S6        30.07F
HOLLOMAN AFB   MOSUNNY   94  49  21 SW14      30.04F
ALAMOGORDO     MOSUNNY   91  46  21 SE6       30.07F
T OR C         MOSUNNY   90  51  26 MISG      30.10F

$$
NMZ519>523-012300-
CENTRAL VALLEYS/CENTRAL HIGHLANDS

CITY           SKY/WX    TMP DP  RH WIND       PRES   REMARKS
ALBUQUERQUE    MOSUNNY   87  48  25 CALM      30.15F
DOUBLE EAGLE   MOSUNNY   84  54  34 VRB6      30.20F
MORIARTY ARPT    N/A     82  51  34 SW5       30.23F
CLINES CORNERS MOSUNNY   79  54  41 NW8       30.28F
BELEN          FAIR      91  46  21 S7        30.13F
SOCORRO        NOT AVBL

$$
NMZ524>526-539-540-012300-
SOUTHCENTRAL MOUNTAINS

CITY           SKY/WX    TMP DP  RH WIND       PRES   REMARKS
RUIDOSO          N/A    N/A N/A N/A MISG        N/A

$$
NMZ527>531-012300-
NORTHEAST HIGHLANDS/NORTHEAST PLAINS

CITY           SKY/WX    TMP DP  RH WIND       PRES   REMARKS
LAS VEGAS      MOSUNNY   73  56  54 N14       30.27S
RATON          CLOUDY    75  51  43 NW12G28   30.19S THUNDER
CLAYTON        MOSUNNY   85  63  47 S17       30.11S

$$
NMZ532>537-012300-
EASTCENTRAL PLAINS

CITY           SKY/WX    TMP DP  RH WIND       PRES   REMARKS
TUCUMCARI      SUNNY     90  63  40 S12G18    30.04F
CANNON AFB     MOSUNNY   87  62  42 S9        30.08F
CLOVIS AIRPORT MOSUNNY   90  63  40 SW12      30.09F

$$
NMZ028-029-538-012300-
SOUTHEAST PLAINS

CITY           SKY/WX    TMP DP  RH WIND       PRES   REMARKS
ROSWELL        MOSUNNY   97  54  23 E7        30.02F HX  95
ARTESIA        MOSUNNY   90  57  33 SW28G38   30.04S
CARLSBAD       MOSUNNY   97  56  25 SW9       29.99F HX  95
HOBBS          MOSUNNY   93  54  26 SE14      30.04F


$$


USA.gov is the U.S. government's official web portal to all federal, state and local government web resources and services.